Dewpoint
61 55 51 43 48 40 31 32 2 19 14 6 8 14 5 16 23 16 16 17 13 37 58 59 54 54 52 51 53 60 61 56 54 50 50 67 70 69 70 71 71 70 70 71 71 72 72 72 72 72 72 72 71 71 70 70 70 70 70 70 70 71 72 72 73 73 73 73 73 73 73 73 73 73 73 73 73 72 72 72 72 72 71 71 71 70 70 70 70 69 69 70 70 70 70 70 70
52 47 44 50 41 30 19 31 22 21 20 14 14 16 11 17 20 19 16 14 16 50 60 60 60 61 61 62 61 59 58 63 61 65 66 69 69 69 71 71 71 70 70 70 71 71 69 71 72 72 72 72 71 71 70 70 70 70 70 70 70 72 72 73 73 73 73 73 73 73 73 73 73 73 72 72 72 72 72 71 71 71 71 71 70 70 70 70 69 69 69 70 70 70 70 70 69
49 44 28 39 32 34 31 27 4 19 6 7 10 16 20 13 12 15 19 23 21 58 60 60 60 59 57 57 54 55 56 64 65 65 67 69 67 70 71 71 70 70 70 71 71 70 70 71 72 72 72 72 71 71 70 71 70 70 70 70 70 71 72 72 73 73 73 73 73 73 73 73 73 73 73 72 71 70 70 70 69 69 69 69 70 70 70 69 69 69 69 70 70 70 70 69 68
50 47 29 30 25 30 28 18 18 14 4 2 3 12 16 17 14 17 16 17 16 54 59 58 55 61 58 52 59 58 62 62 64 66 66 67 67 69 71 71 71 70 71 70 70 70 70 70 71 72 72 72 71 70 70 70 70 69 70 70 70 70 72 72 73 73 73 73 73 73 73 73 73 72 72 71 70 70 70 69 69 69 69 68 68 69 69 69 69 69 69 69 69 69 69 68 69
41 41 38 30 27 24 22 24 20 17 1 9 -3 9 19 18 18 18 15 16 40 48 57 58 58 62 62 61 61 55 60 64 66 66 66 68 70 71 71 71 70 70 70 70 70 70 70 71 72 72 72 72 71 70 71 71 70 70 70 69 70 70 72 73 73 73 73 73 73 73 73 73 72 72 71 71 70 70 70 70 69 70 69 69 68 68 68 68 68 68 68 69 69 68 68 69 69
33 31 35 29 16 29 23 20 22 18 6 10 3 14 19 20 19 19 16 19 51 54 57 58 54 56 60 63 63 61 63 61 65 66 67 68 70 72 71 71 70 70 70 70 70 70 70 71 72 72 72 71 70 70 71 70 70 69 70 70 70 71 72 72 73 73 72 73 73 73 73 72 72 72 71 71 71 70 70 70 69 69 68 68 68 68 68 68 68 68 68 68 68 68 69 69 69
24 26 29 20 23 24 17 18 13 17 17 18 12 11 18 20 19 18 20 17 54 58 61 58 60 59 57 62 63 64 66 66 65 66 68 69 71 72 72 70 70 70 70 70 70 70 70 73 72 72 72 71 71 70 70 69 69 69 69 70 70 71 72 73 73 73 73 73 73 73 72 73 73 72 71 70 70 70 69 69 68 69 68 68 68 69 69 69 68 68 68 67 68 68 69 69 70
36 21 25 13 17 19 15 18 16 17 15 22 21 20 21 21 20 21 21 19 25 52 61 61 60 58 61 64 59 64 66 67 67 69 70 70 71 72 71 70 70 70 70 70 71 71 72 72 72 72 72 72 71 70 70 70 69 68 69 70 70 71 71 72 73 73 73 73 73 73 73 73 72 71 70 70 70 70 70 70 69 70 70 69 68 68 68 68 68 69 68 68 68 68 69 69 70
32 27 29 18 12 21 17 13 11 19 18 19 18 23 32 25 22 22 20 21 20 29 45 60 60 52 60 61 61 64 67 69 69 70 70 71 70 71 71 70 70 70 71 70 71 71 71 72 72 72 72 71 71 71 70 69 69 69 69 69 71 72 72 72 73 73 73 73 73 73 73 72 72 71 71 71 71 71 72 71 70 70 70 69 68 68 68 68 68 68 68 68 68 68 69 70 69
29 26 20 24 19 10 13 12 12 9 13 15 15 14 17 18 19 22 17 15 16 46 56 61 60 55 61 60 61 63 67 69 69 70 70 71 71 72 71 71 71 71 70 70 71 71 70 72 72 72 72 72 71 70 70 69 69 70 70 70 71 72 72 73 73 73 73 73 73 73 73 72 72 72 72 72 71 70 70 69 69 69 69 69 69 69 68 68 68 68 68 68 68 68 69 70 69
17 25 26 15 16 12 9 5 11 13 14 17 18 18 18 17 17 16 18 15 23 23 61 61 57 59 59 60 63 66 68 69 68 69 71 71 71 71 71 71 71 71 70 71 72 70 70 70 72 72 72 71 71 70 70 70 71 70 71 71 71 72 73 73 73 73 73 73 72 72 72 72 72 72 72 71 70 70 70 70 70 69 69 69 69 69 69 69 69 68 69 69 68 69 69 69 69
23 20 18 15 15 9 10 10 11 12 15 16 13 15 20 19 19 18 17 16 20 35 53 61 56 61 59 60 62 67 68 69 69 70 71 71 70 71 71 71 71 71 71 72 71 71 70 70 71 72 72 72 71 70 70 70 71 71 71 71 72 72 73 73 73 73 73 73 72 72 72 72 72 72 72 70 70 69 69 69 70 70 69 70 70 69 68 68 69 69 69 69 68 68 69 69 68
20 22 18 16 15 15 16 15 12 21 18 13 11 15 18 19 16 21 22 17 25 34 53 60 61 59 57 60 64 66 66 69 70 71 71 70 70 70 71 71 72 71 72 72 71 71 71 70 70 70 70 71 71 71 70 70 71 71 71 71 72 72 72 72 72 72 72 72 72 72 72 72 72 71 71 70 70 70 70 70 69 69 69 69 70 70 69 69 69 69 68 68 68 69 70 69 69
22 24 20 8 16 15 14 11 13 9 5 11 14 15 13 11 16 26 20 15 35 38 54 61 60 61 61 61 63 64 66 68 70 70 70 71 70 70 71 71 71 71 72 71 70 70 71 70 70 70 70 71 71 70 70 70 70 71 71 71 72 72 72 72 72 73 72 72 72 72 72 72 72 72 71 70 70 70 70 70 70 70 70 70 69 70 69 69 69 69 69 68 68 69 70 70 69
18 22 22 20 14 12 12 9 8 9 5 11 12 12 12 20 24 34 31 25 24 61 62 62 61 54 57 59 60 63 65 68 70 70 70 70 70 70 71 70 71 71 71 71 70 70 69 70 70 70 70 70 70 70 70 69 70 70 70 71 71 72 72 72 72 72 72 72 72 72 72 72 72 71 71 70 70 70 70 70 70 69 69 70 70 69 68 68 69 69 69 68 68 69 70 70 69
29 19 19 17 11 11 8 11 12 9 8 12 12 13 13 13 34 53 43 27 48 62 61 59 62 57 60 58 61 64 66 68 70 70 69 69 70 70 70 70 70 70 70 70 70 70 70 70 70 70 69 69 70 70 70 69 69 70 69 70 71 72 72 72 72 72 72 72 72 72 72 72 72 72 71 70 70 70 69 69 70 70 70 70 70 69 69 69 69 69 69 69 69 69 70 70 70
25 25 23 19 14 12 10 9 10 4 9 11 12 14 14 13 35 57 62 51 59 61 62 62 60 63 60 61 63 65 67 69 69 69 68 68 69 69 69 69 69 69 69 70 70 70 70 70 70 69 70 70 69 69 69 69 69 69 70 70 71 71 72 71 72 72 72 72 72 72 72 71 72 71 70 70 70 69 69 69 70 70 70 70 70 70 70 69 69 69 68 68 67 69 69 69 69
25 23 24 21 16 12 11 8 10 10 9 9 14 15 13 11 39 60 60 59 61 62 63 64 64 63 63 65 65 66 67 68 68 67 67 67 67 67 68 68 67 67 68 68 69 70 69 70 69 69 69 70 69 69 69 69 69 69 70 70 70 71 71 71 71 71 71 71 72 72 72 71 71 70 71 70 70 70 69 69 69 69 70 70 70 70 70 70 69 69 68 67 65 66 68 68 68
24 27 25 14 19 16 14 12 11 10 9 15 16 17 12 11 38 59 58 59 61 60 61 63 62 64 65 65 65 66 67 67 67 67 66 66 66 65 66 66 67 67 68 68 68 69 68 69 69 69 69 69 69 69 69 69 69 69 69 70 70 70 70 71 71 71 70 70 70 70 71 71 70 70 70 69 70 70 70 70 69 69 69 70 70 70 70 70 70 69 68 66 67 65 66 67 67
27 26 20 19 21 20 15 15 14 13 15 16 18 15 12 12 53 60 58 58 59 59 60 61 62 62 63 64 65 66 66 66 66 66 65 65 66 65 66 66 66 67 67 67 67 69 69 69 69 69 69 69 68 67 68 68 69 69 69 69 70 70 70 71 71 70 71 71 70 71 71 70 70 70 71 71 70 69 70 70 70 70 70 70 70 69 70 70 69 69 68 66 66 65 63 64 65
26 26 19 21 24 22 23 19 19 20 18 18 14 14 13 13 44 58 59 58 58 59 61 61 61 63 63 64 65 65 64 65 64 65 65 64 65 66 65 66 65 66 67 68 68 68 68 69 69 69 69 69 67 67 68 68 69 68 69 69 70 70 70 69 70 70 70 70 70 70 70 70 70 69 69 69 69 69 68 69 69 68 69 68 68 68 68 67 68 66 67 66 65 63 62 64 65
25 24 26 25 20 22 23 20 20 18 18 13 14 13 13 21 44 54 59 55 54 57 60 61 63 63 64 64 64 64 63 64 64 64 65 64 64 65 65 66 66 68 68 66 67 68 68 68 68 68 68 68 67 67 67 68 68 68 69 69 70 69 69 69 70 70 70 70 71 70 70 70 69 69 69 69 69 69 68 67 68 68 68 68 68 67 67 68 67 66 67 66 66 64 63 64 65
19 23 23 25 24 24 19 17 17 15 15 14 14 14 13 13 17 48 54 51 55 57 60 62 63 64 64 64 64 64 63 64 64 64 64 64 64 64 64 65 65 67 66 66 67 67 68 68 68 67 67 67 68 67 67 67 67 68 68 69 68 69 70 68 69 70 69 70 70 70 69 70 69 69 69 69 69 69 68 68 68 68 68 67 68 66 67 67 68 67 67 67 66 65 62 63 63
22 19 21 21 19 20 19 20 18 15 14 15 15 14 12 12 10 43 52 57 61 62 62 64 64 64 64 64 64 64 64 64 65 65 65 65 65 64 64 65 66 67 65 66 66 67 67 68 68 66 67 67 67 67 67 67 67 67 67 68 69 69 69 68 68 70 69 70 69 70 69 69 69 69 69 69 70 69 70 69 69 68 68 67 68 67 67 67 67 67 67 66 66 65 63 62 61
21 20 21 21 20 20 20 18 16 15 15 14 13 11 10 11 10 58 56 60 64 64 64 64 64 64 64 64 64 64 64 65 65 65 66 65 65 65 65 64 66 66 64 66 66 66 67 68 67 66 67 67 67 67 67 67 67 68 68 68 69 69 69 69 69 69 69 69 69 69 69 69 69 69 69 69 69 69 69 69 69 69 68 68 68 67 68 67 67 66 66 66 66 66 65 65 62
16 18 17 16 17 17 16 16 17 16 14 13 11 10 10 26 26 56 60 63 64 64 64 64 64 64 64 64 65 64 64 65 65 65 65 66 66 65 64 64 65 65 65 66 66 66 67 67 66 66 67 66 67 67 66 67 67 67 67 67 68 69 69 68 69 70 69 69 69 69 69 69 69 69 69 69 68 69 69 69 69 70 70 69 69 68 67 67 66 67 66 65 64 65 65 66 65
16 15 15 15 15 16 15 14 14 11 9 11 9 8 13 54 49 53 62 64 64 64 64 64 63 63 64 64 65 65 65 64 65 65 65 66 66 65 64 64 64 64 65 65 65 66 67 67 66 67 67 68 67 67 67 67 67 67 67 68 67 68 69 70 69 70 69 69 69 69 69 69 69 69 69 69 69 69 69 69 69 69 69 69 69 68 68 68 67 66 67 65 64 63 65 65 64
15 13 14 13 13 12 13 10 9 8 10 10 9 7 17 41 45 40 61 64 64 63 63 63 63 63 64 64 64 64 64 65 65 65 65 65 65 65 65 64 64 64 64 65 65 66 66 67 67 67 67 68 67 67 67 67 67 67 68 67 67 68 69 69 69 69 69 69 68 69 69 69 69 69 69 69 68 69 68 68 68 68 69 70 69 69 68 68 67 67 67 67 67 67 66 65 65
8 7 9 10 7 9 9 10 10 10 11 12 11 13 18 44 41 56 62 64 63 62 62 62 62 63 64 64 64 64 64 65 65 65 65 65 65 66 66 66 65 65 64 65 65 66 66 67 67 67 67 68 67 67 67 66 67 67 67 68 68 68 69 69 68 68 68 68 68 68 68 68 68 69 69 69 69 68 69 69 68 68 68 69 69 68 68 68 67 67 66 67 66 67 66 65 63
8 6 8 9 10 11 11 8 8 7 7 12 12 7 7 28 40 57 63 63 63 61 62 62 62 63 64 64 64 64 65 65 65 65 65 65 65 66 66 66 66 65 65 66 66 66 67 67 67 67 68 68 68 68 68 67 67 67 67 68 68 68 69 68 68 68 69 68 68 68 68 68 68 68 68 68 68 68 67 67 67 68 68 68 68 68 68 68 67 67 66 66 65 66 66 65 65
5 7 7 8 9 10 8 10 7 9 11 12 8 9 7 12 39 61 63 63 61 61 61 61 62 63 64 63 63 64 65 66 65 66 66 66 66 66 66 66 66 66 65 66 66 66 67 67 68 68 68 68 68 68 67 67 68 67 67 67 67 68 68 68 68 68 69 68 68 68 68 68 68 68 68 68 68 67 67 68 67 68 67 68 68 68 67 67 67 66 67 65 65 65 65 65 66
6 5 4 6 7 9 8 15 9 12 7 12 7 10 6 12 55 60 62 62 61 60 61 61 62 63 63 63 64 64 65 66 66 66 66 66 67 66 66 66 66 66 66 66 66 66 66 68 68 68 68 68 68 68 68 68 68 68 68 68 68 68 68 68 68 69 68 69 68 68 67 67 68 67 67 67 67 67 68 67 67 67 67 67 68 67 67 66 66 66 66 66 65 64 64 65 66
8 5 15 6 6 7 8 9 13 9 9 10 7 5 10 12 55 59 62 61 61 61 62 62 62 62 63 63 63 64 65 66 66 66 67 67 67 66 66 66 66 66 67 67 67 67 67 67 68 68 68 68 68 68 68 68 68 68 68 68 68 68 68 68 68 69 68 68 68 67 68 68 68 68 67 67 67 67 67 67 68 67 67 67 67 67 66 66 66 66 66 66 65 65 64 64 65
8 9 9 12 5 6 8 8 5 8 6 6 8 6 14 19 56 59 61 60 61 60 61 61 62 61 63 63 63 65 65 65 66 66 67 67 67 67 67 66 66 67 67 67 68 67 67 67 68 68 69 68 68 68 68 68 68 68 68 67 68 68 68 68 68 68 68 68 68 67 68 68 68 67 67 67 68 67 67 67 67 67 66 67 67 66 66 66 66 66 65 66 66 66 66 64 64
11 12 12 7 6 9 7 8 6 7 6 4 11 9 11 23 53 59 61 60 60 60 60 60 62 62 63 62 63 65 65 65 67 66 67 67 67 67 67 66 67 67 68 68 68 68 68 68 68 68 68 68 68 68 68 67 68 68 68 68 68 67 67 68 68 68 68 68 68 68 67 67 67 67 67 67 67 67 67 67 67 67 67 66 66 65 65 66 66 66 65 66 66 66 66 66 64
9 7 8 7 6 4 6 6 6 10 7 3 7 6 7 40 54 56 60 60 60 60 61 62 62 62 63 63 63 63 63 65 67 67 67 67 67 67 66 66 67 67 68 68 68 68 68 68 68 68 68 68 68 68 67 67 67 67 67 67 67 67 68 68 69 67 68 67 67 67 67 67 66 67 66 66 67 67 66 67 66 66 66 65 65 65 65 65 66 65 65 65 65 65 65 65 65
8 7 7 6 4 3 4 5 5 6 5 7 8 12 16 44 53 57 58 60 60 59 61 61 62 62 62 62 62 62 63 64 67 67 67 67 67 67 67 67 67 68 68 68 68 68 68 68 68 67 68 68 67 67 67 67 67 67 67 66 66 67 67 67 67 68 68 67 67 67 67 67 67 67 66 66 66 66 66 66 66 66 66 65 65 65 65 65 65 66 66 66 65 64 64 65 66
7 6 5 4 4 5 4 4 6 8 13 9 17 11 24 45 54 57 58 59 57 58 59 60 60 61 61 63 62 62 63 66 67 67 67 67 67 67 67 67 67 66 67 67 67 68 68 68 68 68 68 68 68 68 68 67 67 66 66 66 66 66 67 66 66 67 68 68 67 67 67 67 67 66 67 66 66 66 66 66 66 66 67 66 66 66 66 65 65 65 65 65 65 65 64 64 64
9 7 7 5 4 6 5 7 9 11 5 8 12 8 13 41 53 56 57 57 57 59 59 59 60 60 61 62 62 62 64 65 66 66 67 67 67 67 67 67 67 67 67 67 68 68 68 68 68 68 68 68 68 68 68 67 68 68 67 67 67 66 68 68 68 68 68 68 68 68 68 68 67 66 66 66 66 66 66 66 66 67 66 66 66 65 66 65 65 65 65 65 65 64 64 65 64
10 8 8 6 5 4 6 8 11 9 11 9 15 7 16 20 28 48 57 58 58 59 59 59 60 60 59 61 61 62 63 65 65 65 66 66 67 66 67 67 67 67 67 67 68 67 67 68 68 68 68 68 68 68 68 68 68 68 68 68 68 68 67 68 68 68 68 68 68 67 67 68 67 67 66 66 66 66 66 66 66 67 67 67 66 66 65 65 65 66 66 65 65 63 63 63 64
15 7 5 3 3 3 5 6 11 17 15 19 12 14 12 18 31 46 54 57 57 57 59 59 59 59 60 61 63 62 62 64 65 65 65 66 66 66 66 67 67 67 67 67 67 67 68 68 68 68 68 67 68 68 68 68 68 68 67 67 67 67 67 66 66 66 67 67 68 68 68 67 67 67 67 66 66 66 67 67 66 67 67 67 66 66 66 65 65 65 65 65 64 63 62 64 63
10 15 6 5 4 3 5 12 7 9 10 11 9 6 8 21 22 40 51 56 57 57 58 58 59 59 60 61 62 63 63 64 64 65 65 66 66 66 66 66 67 67 67 68 68 68 68 68 68 68 67 67 67 68 68 68 68 67 66 66 65 64 64 64 64 64 64 66 66 68 68 67 67 67 67 66 66 66 66 66 66 65 66 66 65 66 65 66 65 65 66 66 65 66 65 62 63
9 6 9 6 5 4 4 2 6 7 7 12 18 8 12 18 15 20 43 52 53 56 57 57 58 59 59 60 61 62 64 65 65 65 65 65 65 65 63 62 65 67 68 68 68 68 68 68 68 67 67 67 68 68 68 68 68 67 67 66 65 64 64 65 66 66 67 67 67 67 66 67 66 66 66 66 66 65 65 65 65 65 64 65 65 65 64 64 64 64 65 66 65 66 65 63 63
1 14 8 6 5 5 5 4 6 7 17 18 14 9 9 10 13 22 30 49 52 52 54 56 57 58 59 59 60 62 63 64 64 65 65 64 61 60 60 62 66 67 67 68 68 68 67 67 67 67 67 67 67 68 68 68 67 67 67 66 66 65 64 65 66 67 67 66 66 66 66 66 66 65 66 65 65 65 65 65 64 65 64 65 65 65 65 65 64 64 65 66 66 66 65 63 63
9 12 8 7 6 6 6 3 5 15 8 6 9 13 9 11 16 24 23 40 50 50 51 54 57 58 58 59 60 62 63 64 64 64 62 58 59 61 61 63 66 66 67 67 67 67 67 67 67 67 67 67 68 68 68 68 67 67 67 66 65 65 66 66 66 66 65 66 65 65 66 66 66 66 65 65 65 65 65 65 65 65 65 64 64 65 65 64 64 64 64 64 64 65 64 65 64
12 11 9 9 7 7 5 5 3 13 9 8 7 10 7 7 17 18 28 31 42 48 50 52 55 57 57 59 60 62 63 64 63 64 59 59 61 62 63 64 63 64 66 67 67 67 67 66 66 67 67 67 67 67 67 66 66 65 65 65 66 65 66 65 65 65 65 65 66 66 66 65 65 66 66 65 65 64 65 65 65 65 65 64 64 64 63 63 63 63 63 64 64 63 64 65 64
11 9 7 7 8 13 18 16 11 13 8 8 6 10 5 5 13 17 21 27 34 45 50 52 55 57 57 59 60 62 63 64 62 58 59 60 60 61 62 61 61 62 63 65 65 65 65 65 65 65 66 66 66 66 66 66 66 66 66 66 66 65 65 65 64 64 64 65 64 64 64 64 65 65 65 65 65 64 64 64 65 64 64 64 64 64 63 64 63 63 62 62 62 62 62 63 64
8 7 9 8 12 16 14 14 15 7 6 10 10 6 7 5 13 17 25 32 36 40 48 52 54 55 57 59 60 61 62 62 57 57 61 59 59 60 61 60 60 60 61 64 65 65 65 65 65 65 65 66 67 67 67 66 67 66 67 67 66 65 65 64 64 64 64 64 64 63 63 63 64 64 64 64 64 64 64 64 64 64 63 64 64 64 63 63 62 63 63 63 63 63 63 63 63
7 9 7 6 8 15 6 11 8 6 6 15 14 10 7 5 15 27 25 21 28 42 46 49 53 54 57 58 59 62 61 57 56 58 58 58 58 59 60 59 59 60 61 63 65 65 65 65 66 65 64 64 64 65 65 66 66 65 65 65 65 65 65 65 64 64 64 63 62 62 62 61 61 61 62 62 63 63 63 63 63 63 63 63 63 63 63 63 63 63 62 62 62 61 62 63 63
10 8 8 4 5 4 5 4 11 11 13 13 15 13 8 20 15 22 22 31 34 46 48 48 52 55 57 58 60 63 59 58 57 57 57 57 58 59 59 59 60 59 59 60 61 63 64 64 64 64 63 63 63 64 64 64 64 65 65 65 65 64 63 63 63 63 63 62 62 62 61 61 61 61 62 62 62 62 62 62 63 63 62 62 62 62 62 62 63 62 62 62 61 62 63 64 63
11 9 6 6 8 3 5 2 6 5 8 14 18 11 11 11 10 46 46 50 50 50 51 52 52 54 58 60 62 62 59 58 58 57 57 58 58 59 58 59 60 59 59 59 60 61 61 62 63 62 62 63 62 62 63 63 63 63 63 63 63 63 63 62 62 62 62 61 61 61 61 61 61 61 61 61 61 61 61 62 62 62 61 61 61 62 61 62 62 62 62 62 62 63 62 64 64
11 10 8 10 8 17 -0 12 9 10 9 15 16 12 24 20 48 47 51 51 51 50 51 53 51 51 57 60 62 61 60 59 58 57 58 59 60 59 59 60 59 60 60 60 60 60 60 61 62 61 62 62 61 61 61 61 61 62 62 62 62 62 62 62 61 61 61 61 61 61 61 61 61 61 61 61 60 61 62 62 62 62 61 61 61 61 61 62 62 62 63 62 62 62 62 62 63
14 9 10 8 15 15 20 18 24 22 11 6 25 25 30 40 39 49 50 50 50 53 53 52 49 51 56 59 61 60 60 59 58 58 59 60 59 60 60 60 60 60 60 60 60 60 60 61 61 61 61 61 61 60 60 61 61 61 62 62 62 62 61 61 61 61 61 61 61 60 60 60 61 62 61 61 60 60 61 61 61 61 61 61 61 61 61 62 62 62 62 62 62 63 63 61 63
11 11 12 17 17 18 18 6 15 10 6 13 31 15 28 26 18 49 48 48 49 51 53 52 53 53 56 59 60 59 59 59 59 58 57 58 59 59 60 59 60 60 60 60 60 60 61 61 61 61 61 59 59 59 60 60 61 61 61 61 60 60 60 60 60 60 60 60 60 60 60 59 60 60 60 60 60 60 60 60 60 60 61 61 61 61 61 61 62 62 62 62 62 63 62 62 62
12 11 14 8 13 12 22 17 12 10 9 10 29 32 34 31 27 44 45 47 48 50 52 54 54 54 56 60 58 59 59 59 58 57 57 58 59 59 59 59 59 60 60 60 60 60 60 60 61 61 60 59 59 59 59 59 60 60 60 59 59 59 59 59 59 59 60 59 58 58 58 59 59 59 60 59 58 57 58 59 59 59 59 60 60 61 62 62 62 63 63 63 62 63 62 62 62
14 15 12 17 17 18 12 12 19 15 9 17 19 31 25 34 35 45 43 47 48 50 52 53 53 55 57 58 58 57 57 57 57 57 58 58 58 59 59 59 59 59 59 59 59 59 59 60 60 59 58 58 58 59 59 59 60 59 59 58 58 57 57 57 58 58 57 57 57 57 57 57 58 59 57 57 57 57 56 57 57 57 58 58 58 59 60 61 62 62 62 63 63 63 62 61 61
12 13 13 15 19 17 14 20 11 9 14 12 19 24 27 34 40 44 45 47 50 51 51 54 55 55 58 58 57 57 57 57 57 57 57 58 58 59 59 59 59 59 59 59 59 59 58 58 57 57 57 57 58 59 59 59 59 58 58 58 57 57 57 57 56 56 56 56 56 57 56 57 57 57 56 56 56 55 55 55 55 56 56 56 57 57 58 60 62 62 62 62 62 62 62 62 62
12 13 14 12 14 12 9 12 15 16 14 18 17 12 23 34 40 44 47 49 51 52 53 54 55 57 57 57 57 57 57 56 56 57 57 57 57 58 58 58 58 58 59 58 58 58 57 56 56 56 57 57 58 58 57 57 57 57 56 56 56 55 55 55 56 56 56 55 55 55 56 55 55 54 55 55 54 54 55 55 55 55 54 54 55 55 56 58 59 60 61 62 61 61 61 61 62